Regional Weather Roundup
Issued by NWS Goodland, KS

Home | Current Version | Previous Version | Graphics & Text | Print | Product List | Glossary On
Versions: 1 2 3 4 5 6 7 8 9 10 11 12 13 14 15 16 17 18 19 20 21 22 23 24 25 26 27 28 29 30 31 32 33 34 35 36 37 38 39 40 41 42 43 44 45 46 47 48 49 50
000
ASUS43 KGLD 190359
RWRGLD

GOODLAND FORECAST AREA HOURLY WEATHER ROUNDUP
NATIONAL WEATHER SERVICE GOODLAND KS
900 PM MST THU DEC 18 2014

...OFFICIAL OBSERVATIONS...

CITY           SKY/WX    TMP DP  RH WIND       PRES   REMARKS
GOODLAND KS    CLEAR     24  22  91 W6        30.10F
HILL CITY KS   CLOUDY    33  28  81 CALM      30.17S
IMPERIAL NEB   PTCLDY    18  16  92 CALM      30.11R FOG
MCCOOK NEB     CLOUDY    28  26  92 SW6       30.15R FOG
AKRON CO       MOCLDY    27  19  72 S7        30.09S
BURLINGTON CO  CLEAR     25  20  81 CALM      30.10S
LIMON CO       CLEAR     18  16  92 N3        30.09S
$$

...UNOFFICIAL OBSERVATIONS...

CITY           SKY/WX    TMP DP  RH WIND       PRES   REMARKS
GOVE KS          N/A     26  32 100 MISG        N/A
SHARON SPRINGS   N/A     28  26  91 CALM        N/A
TRIBUNE KS     PTCLDY    28  28 100 SW9       30.14R
KIT CARSON CO    N/A     24  22  90 MISG        N/A
YUMA CO          N/A     17  14  88 CALM        N/A
$$



USA.gov is the U.S. government's official web portal to all federal, state and local government web resources and services.